Location: Nebula Knoll Observatory
(43.6666°N, 71.0000°W)
Time: 04:47:16
(UTC-04:00)

Cosmos 1782 - Visible Passes

Search period start: 23 May 2015 00:00
Search period end: 02 June 2015 00:00
Orbit: 542 x 560 km, 82.5° (Epoch: 22 May)

Date Brightness Start Highest point End Pass type
(mag) Time Alt. Az. Time Alt. Az. Time Alt. Az.
23 May 6.0 04:01:49 10° NE 04:04:04 15° ENE 04:06:28 10° ESE visible
24 May 5.9 03:57:46 10° NNE 04:00:17 16° ENE 04:02:54 10° ESE visible
25 May 5.8 03:53:45 10° NNE 03:56:28 18° ENE 03:59:19 10° ESE visible
26 May 5.7 03:49:44 10° NNE 03:52:39 19° ENE 03:55:41 10° ESE visible
27 May 5.5 03:45:45 10° NNE 03:48:51 21° ENE 03:52:01 10° ESE visible
28 May 5.3 03:41:46 10° NNE 03:45:01 23° ENE 03:48:21 10° SE visible
29 May 5.1 03:37:48 10° NNE 03:41:11 26° ENE 03:44:38 10° SE visible
30 May 4.9 03:33:51 10° NNE 03:37:21 28° ENE 03:40:54 10° SE visible
31 May 4.7 03:29:53 10° NNE 03:33:30 31° ENE 03:37:09 10° SE visible
01 Jun 4.5 03:25:56 10° N 03:29:39 34° ENE 03:33:23 10° SE visible
